TimeEDT,TemperatureF,Dew PointF,Humidity,Sea Level PressureIn,VisibilityMPH,Wind Direction,Wind SpeedMPH,Gust SpeedMPH,PrecipitationIn,Events,Conditions,WindDirDegrees,DateUTC
12:15 AM,25.3,19.2,78,30.25,10.0,Calm,Calm,-,N/A,,Clear,0,2013-04-03 04:15:00
12:35 AM,22.8,17.4,80,30.25,10.0,Calm,Calm,-,N/A,,Clear,0,2013-04-03 04:35:00
12:55 AM,25.3,18.0,74,30.25,10.0,Calm,Calm,-,N/A,,Clear,0,2013-04-03 04:55:00
1:15 AM,27.9,17.4,65,30.26,10.0,North,3.5,-,N/A,,Clear,350,2013-04-03 05:15:00
1:35 AM,27.9,16.2,62,30.27,10.0,NE,5.8,-,N/A,,Clear,40,2013-04-03 05:35:00
1:55 AM,27.9,16.3,62,30.28,10.0,NE,4.6,-,N/A,,Clear,40,2013-04-03 05:55:00
2:15 AM,27.3,16.0,62,30.29,10.0,NE,4.6,-,N/A,,Clear,40,2013-04-03 06:15:00
2:35 AM,25.9,14.5,62,30.29,10.0,Calm,Calm,-,N/A,,Clear,0,2013-04-03 06:35:00
2:55 AM,24.1,14.4,66,30.29,10.0,Calm,Calm,-,N/A,,Clear,0,2013-04-03 06:55:00
3:14 AM,22.8,14.5,71,30.30,10.0,Calm,Calm,-,N/A,,Clear,0,2013-04-03 07:14:00
3:35 AM,20.7,14.2,76,30.30,10.0,Calm,Calm,-,N/A,,Clear,0,2013-04-03 07:35:00
3:55 AM,21.6,14.9,76,30.30,10.0,Calm,Calm,-,N/A,,Clear,0,2013-04-03 07:55:00
4:14 AM,21.4,14.9,76,30.30,10.0,Calm,Calm,-,N/A,,Clear,0,2013-04-03 08:14:00
4:35 AM,20.3,15.1,80,30.31,10.0,Calm,Calm,-,N/A,,Clear,0,2013-04-03 08:35:00
4:55 AM,20.3,15.1,80,30.31,10.0,Calm,Calm,-,N/A,,Clear,0,2013-04-03 08:55:00
5:14 AM,20.5,15.3,80,30.32,10.0,Calm,Calm,-,N/A,,Clear,0,2013-04-03 09:14:00
5:35 AM,20.3,15.6,82,30.32,10.0,Calm,Calm,-,N/A,,Clear,0,2013-04-03 09:35:00
5:54 AM,18.0,13.6,83,30.33,10.0,Calm,Calm,-,N/A,,Clear,0,2013-04-03 09:54:00
6:15 AM,17.6,13.5,84,30.34,10.0,Calm,Calm,-,N/A,,Clear,0,2013-04-03 10:15:00
6:35 AM,18.9,14.9,85,30.34,10.0,Calm,Calm,-,N/A,,Scattered Clouds,0,2013-04-03 10:35:00
6:54 AM,20.3,15.3,81,30.35,10.0,North,3.5,-,N/A,,Scattered Clouds,350,2013-04-03 10:54:00
7:15 AM,23.0,12.2,63,30.35,10.0,NNW,4.6,-,N/A,,Clear,340,2013-04-03 11:15:00
7:35 AM,24.1,10.6,56,30.36,10.0,NNW,3.5,-,N/A,,Clear,330,2013-04-03 11:35:00
7:54 AM,25.3,10.4,53,30.36,10.0,North,3.5,-,N/A,,Clear,350,2013-04-03 11:54:00
8:15 AM,27.0,11.8,53,30.37,10.0,Calm,Calm,-,N/A,,Clear,0,2013-04-03 12:15:00
8:34 AM,30.2,15.8,55,30.38,10.0,Calm,Calm,-,N/A,,Clear,0,2013-04-03 12:34:00
8:55 AM,30.2,14.7,53,30.39,10.0,North,4.6,-,N/A,,Scattered Clouds,350,2013-04-03 12:55:00
9:15 AM,32.2,15.1,49,30.40,10.0,NNW,6.9,-,N/A,,Scattered Clouds,330,2013-04-03 13:15:00
9:34 AM,32.0,15.4,51,30.40,10.0,NNW,9.2,-,N/A,,Mostly Cloudy,330,2013-04-03 13:34:00
9:55 AM,32.5,16.0,51,30.41,10.0,NNW,8.1,-,N/A,,Scattered Clouds,340,2013-04-03 13:55:00
10:14 AM,35.1,15.4,45,30.41,10.0,NNW,11.5,16.1,N/A,,Mostly Cloudy,340,2013-04-03 14:14:00
10:35 AM,35.1,12.9,40,30.42,10.0,NNW,6.9,-,N/A,,Scattered Clouds,330,2013-04-03 14:35:00
10:55 AM,35.1,12.9,40,30.43,10.0,NW,8.1,-,N/A,,Scattered Clouds,310,2013-04-03 14:55:00
11:14 AM,35.1,13.3,41,30.43,10.0,Calm,Calm,-,N/A,,Clear,0,2013-04-03 15:14:00
11:35 AM,35.1,11.3,37,30.44,10.0,WNW,5.8,-,N/A,,Clear,290,2013-04-03 15:35:00
11:55 AM,35.1,12.6,40,30.45,10.0,North,10.4,18.4,N/A,,Clear,360,2013-04-03 15:55:00
12:15 PM,35.2,14.4,42,30.46,10.0,WNW,13.8,-,N/A,,Scattered Clouds,300,2013-04-03 16:15:00
12:35 PM,35.1,14.9,44,30.47,10.0,NW,8.1,18.4,N/A,,Scattered Clouds,310,2013-04-03 16:35:00
12:55 PM,35.1,14.0,42,30.46,10.0,NNW,11.5,17.3,N/A,,Scattered Clouds,330,2013-04-03 16:55:00
1:15 PM,35.1,13.6,41,30.46,10.0,WNW,10.4,18.4,N/A,,Scattered Clouds,300,2013-04-03 17:15:00
1:35 PM,35.1,13.3,41,30.45,10.0,West,9.2,-,N/A,,Clear,280,2013-04-03 17:35:00
1:54 PM,35.1,13.5,41,30.45,10.0,West,8.1,-,N/A,,Clear,270,2013-04-03 17:54:00
2:15 PM,36.0,14.5,42,30.44,10.0,WNW,9.2,16.1,N/A,,Clear,300,2013-04-03 18:15:00
2:35 PM,35.1,14.2,42,30.43,10.0,WNW,6.9,-,N/A,,Clear,300,2013-04-03 18:35:00
2:54 PM,35.1,13.3,41,30.42,10.0,NNW,9.2,-,N/A,,Clear,340,2013-04-03 18:54:00
3:15 PM,35.8,13.6,40,30.40,10.0,NNW,8.1,-,N/A,,Clear,330,2013-04-03 19:15:00
3:35 PM,37.6,14.0,38,30.41,10.0,North,3.5,-,N/A,,Clear,350,2013-04-03 19:35:00
3:54 PM,35.8,10.6,35,30.40,10.0,East,3.5,-,N/A,,Clear,80,2013-04-03 19:54:00
4:15 PM,37.6,11.8,35,30.39,10.0,NNE,5.8,-,N/A,,Clear,30,2013-04-03 20:15:00
4:35 PM,37.6,9.9,32,30.38,10.0,NE,5.8,-,N/A,,Clear,40,2013-04-03 20:35:00
4:54 PM,37.6,9.1,31,30.38,10.0,East,4.6,-,N/A,,Clear,90,2013-04-03 20:54:00
5:15 PM,37.6,8.2,30,30.37,10.0,Calm,Calm,-,N/A,,Clear,0,2013-04-03 21:15:00
5:35 PM,37.6,8.2,30,30.37,10.0,Calm,Calm,-,N/A,,Clear,0,2013-04-03 21:35:00
5:55 PM,37.6,12.2,35,30.36,10.0,Calm,Calm,-,N/A,,Clear,0,2013-04-03 21:55:00
6:15 PM,37.6,15.6,41,30.36,10.0,West,8.1,-,N/A,,Clear,260,2013-04-03 22:15:00
6:35 PM,35.1,16.0,46,30.36,10.0,West,9.2,-,N/A,,Clear,280,2013-04-03 22:35:00
6:55 PM,35.1,16.7,47,30.37,10.0,West,9.2,-,N/A,,Clear,270,2013-04-03 22:55:00
7:15 PM,34.7,18.0,51,30.38,10.0,West,10.4,-,N/A,,Clear,260,2013-04-03 23:15:00
7:34 PM,32.5,16.9,53,30.38,10.0,WSW,9.2,-,N/A,,Clear,250,2013-04-03 23:34:00
7:55 PM,31.6,16.7,54,30.37,10.0,WSW,6.9,-,N/A,,Clear,250,2013-04-03 23:55:00
8:15 PM,30.2,17.1,58,30.36,10.0,WSW,5.8,-,N/A,,Clear,250,2013-04-04 00:15:00
8:34 PM,30.2,17.4,59,30.34,10.0,Calm,Calm,-,N/A,,Clear,0,2013-04-04 00:34:00
8:55 PM,30.2,18.5,62,30.34,10.0,Calm,Calm,-,N/A,,Clear,0,2013-04-04 00:55:00
9:15 PM,29.3,18.5,64,30.34,10.0,Calm,Calm,-,N/A,,Clear,0,2013-04-04 01:15:00
9:34 PM,28.0,19.0,69,30.34,10.0,South,3.5,-,N/A,,Clear,170,2013-04-04 01:34:00
9:55 PM,25.0,17.2,72,30.33,10.0,Calm,Calm,-,N/A,,Clear,0,2013-04-04 01:55:00
10:15 PM,29.3,19.8,68,30.33,10.0,Calm,Calm,-,N/A,,Clear,0,2013-04-04 02:15:00
10:34 PM,27.9,19.4,71,30.32,10.0,SE,3.5,-,N/A,,Clear,140,2013-04-04 02:34:00
10:55 PM,27.9,18.9,69,30.32,10.0,SSE,3.5,-,N/A,,Clear,150,2013-04-04 02:55:00
11:15 PM,27.9,18.9,69,30.32,10.0,Calm,Calm,-,N/A,,Clear,0,2013-04-04 03:15:00
11:35 PM,27.9,18.7,68,30.32,10.0,Calm,Calm,-,N/A,,Clear,0,2013-04-04 03:35:00
11:55 PM,27.9,17.8,66,30.31,10.0,South,3.5,-,N/A,,Clear,180,2013-04-04 03:55:00